Year,Month,Day,Hour,Minute,Value (Times are PST for temperature in C)
2018,04,22,00,00,6.90
2018,04,22,00,01,6.90
2018,04,22,00,02,6.90
2018,04,22,00,03,6.90
2018,04,22,00,04,6.80
2018,04,22,00,05,6.80
2018,04,22,00,06,6.80
2018,04,22,00,07,6.80
2018,04,22,00,08,6.80
2018,04,22,00,09,6.70
2018,04,22,00,10,6.70
2018,04,22,00,11,6.70
2018,04,22,00,12,6.60
2018,04,22,00,13,6.60
2018,04,22,00,14,6.60
2018,04,22,00,15,6.50
2018,04,22,00,16,6.50
2018,04,22,00,17,6.50
2018,04,22,00,18,6.40
2018,04,22,00,19,6.40
2018,04,22,00,20,6.40
2018,04,22,00,21,6.30
2018,04,22,00,22,6.30
2018,04,22,00,23,6.30
2018,04,22,00,24,6.30
2018,04,22,00,25,6.20
2018,04,22,00,26,6.20
2018,04,22,00,27,6.20
2018,04,22,00,28,6.10
2018,04,22,00,29,6.10
2018,04,22,00,30,6.10
2018,04,22,00,31,6.00
2018,04,22,00,32,6.00
2018,04,22,00,33,6.00
2018,04,22,00,34,5.90
2018,04,22,00,35,5.90
2018,04,22,00,36,5.90
2018,04,22,00,37,5.80
2018,04,22,00,38,5.80
2018,04,22,00,39,5.80
2018,04,22,00,40,5.80
2018,04,22,00,41,5.80
2018,04,22,00,42,5.80
2018,04,22,00,43,5.70
2018,04,22,00,44,5.70
2018,04,22,00,45,5.70
2018,04,22,00,46,5.70
2018,04,22,00,47,5.70
2018,04,22,00,48,5.60
2018,04,22,00,49,5.60
2018,04,22,00,50,5.60
2018,04,22,00,51,5.60
2018,04,22,00,52,5.50
2018,04,22,00,53,5.50
2018,04,22,00,54,5.50
2018,04,22,00,55,5.40
2018,04,22,00,56,5.40
2018,04,22,00,57,5.40
2018,04,22,00,58,5.40
2018,04,22,00,59,5.40
2018,04,22,01,00,5.30
2018,04,22,01,01,5.30
2018,04,22,01,02,5.30
2018,04,22,01,03,5.30
2018,04,22,01,04,5.20
2018,04,22,01,05,5.20
2018,04,22,01,06,5.20
2018,04,22,01,07,5.20
2018,04,22,01,08,5.20
2018,04,22,01,09,5.10
2018,04,22,01,10,5.10
2018,04,22,01,11,5.10
2018,04,22,01,12,5.00
2018,04,22,01,13,5.00
2018,04,22,01,14,4.90
2018,04,22,01,15,4.90
2018,04,22,01,16,4.80
2018,04,22,01,17,4.80
2018,04,22,01,18,4.80
2018,04,22,01,19,4.80
2018,04,22,01,20,4.70
2018,04,22,01,21,4.70
2018,04,22,01,22,4.70
2018,04,22,01,23,4.70
2018,04,22,01,24,4.70
2018,04,22,01,25,4.60
2018,04,22,01,26,4.60
2018,04,22,01,27,4.60
2018,04,22,01,28,4.60
2018,04,22,01,29,4.60
2018,04,22,01,30,4.60
2018,04,22,01,31,4.60
2018,04,22,01,32,4.60
2018,04,22,01,33,4.50
2018,04,22,01,34,4.60
2018,04,22,01,35,4.60
2018,04,22,01,36,4.50
2018,04,22,01,37,4.50
2018,04,22,01,38,4.50
2018,04,22,01,39,4.50
2018,04,22,01,40,4.50
2018,04,22,01,41,4.40
2018,04,22,01,42,4.40
2018,04,22,01,43,4.40
2018,04,22,01,44,4.40
2018,04,22,01,45,4.40
2018,04,22,01,46,4.40
2018,04,22,01,47,4.40
2018,04,22,01,48,4.40
2018,04,22,01,49,4.30
2018,04,22,01,50,4.30
2018,04,22,01,51,4.30
2018,04,22,01,52,4.30
2018,04,22,01,53,4.30
2018,04,22,01,54,4.30
2018,04,22,01,55,4.20
2018,04,22,01,56,4.20
2018,04,22,01,57,4.20
2018,04,22,01,58,4.20
2018,04,22,01,59,4.20
2018,04,22,02,00,4.10
2018,04,22,02,01,4.10
2018,04,22,02,02,4.10
2018,04,22,02,03,4.10
2018,04,22,02,04,4.10
2018,04,22,02,05,4.10
2018,04,22,02,06,4.10
2018,04,22,02,07,4.10
2018,04,22,02,08,4.10
2018,04,22,02,09,4.00
2018,04,22,02,10,4.00
2018,04,22,02,11,4.00
2018,04,22,02,12,4.00
2018,04,22,02,13,4.00
2018,04,22,02,14,4.00
2018,04,22,02,15,4.00
2018,04,22,02,16,3.90
2018,04,22,02,17,3.90
2018,04,22,02,18,3.90
2018,04,22,02,19,3.90
2018,04,22,02,20,3.90
2018,04,22,02,21,3.90
2018,04,22,02,22,3.90
2018,04,22,02,23,3.80
2018,04,22,02,24,3.80
2018,04,22,02,25,3.80
2018,04,22,02,26,3.80
2018,04,22,02,27,3.80
2018,04,22,02,28,3.80
2018,04,22,02,29,3.80
2018,04,22,02,30,3.80
2018,04,22,02,31,3.70
2018,04,22,02,32,3.70
2018,04,22,02,33,3.70
2018,04,22,02,34,3.70
2018,04,22,02,35,3.70
2018,04,22,02,36,3.70
2018,04,22,02,37,3.70
2018,04,22,02,38,3.60
2018,04,22,02,39,3.60
2018,04,22,02,40,3.60
2018,04,22,02,41,3.60
2018,04,22,02,42,3.60
2018,04,22,02,43,3.70
2018,04,22,02,44,3.70
2018,04,22,02,45,3.60
2018,04,22,02,46,3.60
2018,04,22,02,47,3.60
2018,04,22,02,48,3.60
2018,04,22,02,49,3.60
2018,04,22,02,50,3.60
2018,04,22,02,51,3.60
2018,04,22,02,52,3.60
2018,04,22,02,53,3.60
2018,04,22,02,54,3.60
2018,04,22,02,55,3.60
2018,04,22,02,56,3.60
2018,04,22,02,57,3.60
2018,04,22,02,58,3.60
2018,04,22,02,59,3.60
2018,04,22,03,00,3.60
2018,04,22,03,01,3.60
2018,04,22,03,02,3.60
2018,04,22,03,03,3.70
2018,04,22,03,04,3.70
2018,04,22,03,05,3.70
2018,04,22,03,06,3.80
2018,04,22,03,07,3.80
2018,04,22,03,08,3.80
2018,04,22,03,09,3.80
2018,04,22,03,10,3.70
2018,04,22,03,11,3.70
2018,04,22,03,12,3.70
2018,04,22,03,13,3.70
2018,04,22,03,14,3.60
2018,04,22,03,15,3.60
2018,04,22,03,16,3.60
2018,04,22,03,17,3.60
2018,04,22,03,18,3.60
2018,04,22,03,19,3.60
2018,04,22,03,20,3.60
2018,04,22,03,21,3.60
2018,04,22,03,22,3.50
2018,04,22,03,23,3.50
2018,04,22,03,24,3.50
2018,04,22,03,25,3.40
2018,04,22,03,26,3.40
2018,04,22,03,27,3.40
2018,04,22,03,28,3.40
2018,04,22,03,29,3.40
2018,04,22,03,30,3.30
2018,04,22,03,31,3.30
2018,04,22,03,32,3.30
2018,04,22,03,33,3.30
2018,04,22,03,34,3.30
2018,04,22,03,35,3.30
2018,04,22,03,36,3.30
2018,04,22,03,37,3.20
2018,04,22,03,38,3.20
2018,04,22,03,39,3.20
2018,04,22,03,40,3.20
2018,04,22,03,41,3.20
2018,04,22,03,42,3.20
2018,04,22,03,43,3.20
2018,04,22,03,44,3.10
2018,04,22,03,45,3.10
2018,04,22,03,46,3.10
2018,04,22,03,47,3.10
2018,04,22,03,48,3.10
2018,04,22,03,49,3.10
2018,04,22,03,50,3.10
2018,04,22,03,51,3.10
2018,04,22,03,52,3.10
2018,04,22,03,53,3.10
2018,04,22,03,54,3.10
2018,04,22,03,55,3.10
2018,04,22,03,56,3.10
2018,04,22,03,57,3.10
2018,04,22,03,58,3.00
2018,04,22,03,59,3.00
2018,04,22,04,00,3.00
2018,04,22,04,01,3.00
2018,04,22,04,02,3.00
2018,04,22,04,03,3.00
2018,04,22,04,04,3.00
2018,04,22,04,05,3.00
2018,04,22,04,06,3.00
2018,04,22,04,07,3.00
2018,04,22,04,08,3.00
2018,04,22,04,09,3.00
2018,04,22,04,10,3.00
2018,04,22,04,11,3.00
2018,04,22,04,12,3.00
2018,04,22,04,13,3.00
2018,04,22,04,14,3.00
2018,04,22,04,15,3.00
2018,04,22,04,16,2.90
2018,04,22,04,17,2.90
2018,04,22,04,18,2.90
2018,04,22,04,19,2.90
2018,04,22,04,20,2.90
2018,04,22,04,21,2.90
2018,04,22,04,22,2.90
2018,04,22,04,23,2.90
2018,04,22,04,24,2.90
2018,04,22,04,25,2.90
2018,04,22,04,26,2.90
2018,04,22,04,27,2.80
2018,04,22,04,28,2.80
2018,04,22,04,29,2.80
2018,04,22,04,30,2.80
2018,04,22,04,31,2.80
2018,04,22,04,32,2.80
2018,04,22,04,33,2.80
2018,04,22,04,34,2.80
2018,04,22,04,35,2.80
2018,04,22,04,36,2.70
2018,04,22,04,37,2.70
2018,04,22,04,38,2.70
2018,04,22,04,39,2.70
2018,04,22,04,40,2.70
2018,04,22,04,41,2.70
2018,04,22,04,42,2.70
2018,04,22,04,43,2.70
2018,04,22,04,44,2.70
2018,04,22,04,45,2.70
2018,04,22,04,46,2.70
2018,04,22,04,47,2.60
2018,04,22,04,48,2.60
2018,04,22,04,49,2.60
2018,04,22,04,50,2.60
2018,04,22,04,51,2.60
2018,04,22,04,52,2.60
2018,04,22,04,53,2.60
2018,04,22,04,54,2.60
2018,04,22,04,55,2.60
2018,04,22,04,56,2.60
2018,04,22,04,57,2.60
2018,04,22,04,58,2.60
2018,04,22,04,59,2.50
2018,04,22,05,00,2.50
2018,04,22,05,01,2.50
2018,04,22,05,02,2.50
2018,04,22,05,03,2.50
2018,04,22,05,04,2.50
2018,04,22,05,05,2.50
2018,04,22,05,06,2.50
2018,04,22,05,07,2.50
2018,04,22,05,08,2.50
2018,04,22,05,09,2.50
2018,04,22,05,10,2.50
2018,04,22,05,11,2.50
2018,04,22,05,12,2.40
2018,04,22,05,13,2.40
2018,04,22,05,14,2.40
2018,04,22,05,15,2.40
2018,04,22,05,16,2.40
2018,04,22,05,17,2.40
2018,04,22,05,18,2.40
2018,04,22,05,19,2.40
2018,04,22,05,20,2.40
2018,04,22,05,21,2.40
2018,04,22,05,22,2.40
2018,04,22,05,23,2.40
2018,04,22,05,24,2.30
2018,04,22,05,25,2.30
2018,04,22,05,26,2.30
2018,04,22,05,27,2.30
2018,04,22,05,28,2.30
2018,04,22,05,29,2.30
2018,04,22,05,30,2.30
2018,04,22,05,31,2.30
2018,04,22,05,32,2.20
2018,04,22,05,33,2.20
2018,04,22,05,34,2.20
2018,04,22,05,35,2.20
2018,04,22,05,36,2.20
2018,04,22,05,37,2.20
2018,04,22,05,38,2.20
2018,04,22,05,39,2.20
2018,04,22,05,40,2.20
2018,04,22,05,41,2.20
2018,04,22,05,42,2.20
2018,04,22,05,43,2.20
2018,04,22,05,44,2.20
2018,04,22,05,45,2.10
2018,04,22,05,46,2.10
2018,04,22,05,47,2.10
2018,04,22,05,48,2.10
2018,04,22,05,49,2.10
2018,04,22,05,50,2.10
2018,04,22,05,51,2.10
2018,04,22,05,52,2.10
2018,04,22,05,53,2.10
2018,04,22,05,54,2.10
2018,04,22,05,55,2.10
2018,04,22,05,56,2.10
2018,04,22,05,57,2.10
2018,04,22,05,58,2.10
2018,04,22,05,59,2.00
2018,04,22,06,00,2.00
2018,04,22,06,01,2.00
2018,04,22,06,02,2.00
2018,04,22,06,03,2.00
2018,04,22,06,04,2.00
2018,04,22,06,05,2.00
2018,04,22,06,06,2.00
2018,04,22,06,07,2.00
2018,04,22,06,08,2.00
2018,04,22,06,09,2.00
2018,04,22,06,10,2.00
2018,04,22,06,11,1.90
2018,04,22,06,12,1.90
2018,04,22,06,13,1.90
2018,04,22,06,14,1.90
2018,04,22,06,15,1.90
2018,04,22,06,16,1.90
2018,04,22,06,17,1.90
2018,04,22,06,18,1.90
2018,04,22,06,19,1.90
2018,04,22,06,20,1.90
2018,04,22,06,21,1.90
2018,04,22,06,22,1.90
2018,04,22,06,23,1.90
2018,04,22,06,24,1.90
2018,04,22,06,25,1.90
2018,04,22,06,26,1.90
2018,04,22,06,27,1.90
2018,04,22,06,28,1.90
2018,04,22,06,29,1.90
2018,04,22,06,30,1.90
2018,04,22,06,31,1.90
2018,04,22,06,32,1.90
2018,04,22,06,33,1.90
2018,04,22,06,34,1.90
2018,04,22,06,35,1.90
2018,04,22,06,36,1.80
2018,04,22,06,37,1.90
2018,04,22,06,38,1.90
2018,04,22,06,39,1.90
2018,04,22,06,40,1.90
2018,04,22,06,41,1.90
2018,04,22,06,42,1.90
2018,04,22,06,43,1.90
2018,04,22,06,44,1.90
2018,04,22,06,45,1.90
2018,04,22,06,46,2.00
2018,04,22,06,47,2.00
2018,04,22,06,48,2.00
2018,04,22,06,49,2.00
2018,04,22,06,50,2.10
2018,04,22,06,51,2.10
2018,04,22,06,52,2.10
2018,04,22,06,53,2.10
2018,04,22,06,54,2.10
2018,04,22,06,55,2.10
2018,04,22,06,56,2.20
2018,04,22,06,57,2.20
2018,04,22,06,58,2.20
2018,04,22,06,59,2.20
2018,04,22,07,00,2.30
2018,04,22,07,01,2.30
2018,04,22,07,02,2.30
2018,04,22,07,03,2.40
2018,04,22,07,04,2.40
2018,04,22,07,05,2.50
2018,04,22,07,06,2.50
2018,04,22,07,07,2.60
2018,04,22,07,08,2.60
2018,04,22,07,09,2.70
2018,04,22,07,10,2.70
2018,04,22,07,11,2.80
2018,04,22,07,12,2.90
2018,04,22,07,13,2.90
2018,04,22,07,14,3.00
2018,04,22,07,15,3.10
2018,04,22,07,16,3.20
2018,04,22,07,17,3.20
2018,04,22,07,18,3.30
2018,04,22,07,19,3.30
2018,04,22,07,20,3.30
2018,04,22,07,21,3.40
2018,04,22,07,22,3.40
2018,04,22,07,23,3.40
2018,04,22,07,24,3.40
2018,04,22,07,25,3.40
2018,04,22,07,26,3.50
2018,04,22,07,27,3.50
2018,04,22,07,28,3.60
2018,04,22,07,29,3.60
2018,04,22,07,30,3.60
2018,04,22,07,31,3.60
2018,04,22,07,32,3.70
2018,04,22,07,33,3.70
2018,04,22,07,34,3.70
2018,04,22,07,35,3.80
2018,04,22,07,36,3.80
2018,04,22,07,37,3.90
2018,04,22,07,38,4.00
2018,04,22,07,39,4.10
2018,04,22,07,40,4.20
2018,04,22,07,41,4.30
2018,04,22,07,42,4.30
2018,04,22,07,43,4.40
2018,04,22,07,44,4.40
2018,04,22,07,45,4.40
2018,04,22,07,46,4.50
2018,04,22,07,47,4.60
2018,04,22,07,48,4.60
2018,04,22,07,49,4.70
2018,04,22,07,50,4.80
2018,04,22,07,51,4.90
2018,04,22,07,52,5.00
2018,04,22,07,53,5.10
2018,04,22,07,54,5.20
2018,04,22,07,55,5.30
2018,04,22,07,56,5.40
2018,04,22,07,57,5.50
2018,04,22,07,58,5.60
2018,04,22,07,59,5.70
2018,04,22,08,00,5.80
2018,04,22,08,01,5.80
2018,04,22,08,02,5.80
2018,04,22,08,03,5.90
2018,04,22,08,04,6.00
2018,04,22,08,05,6.10
2018,04,22,08,06,6.20
2018,04,22,08,07,6.30
2018,04,22,08,08,6.50
2018,04,22,08,09,6.60
2018,04,22,08,10,6.70
2018,04,22,08,11,6.80
2018,04,22,08,12,7.00
2018,04,22,08,13,7.10
2018,04,22,08,14,7.20
2018,04,22,08,15,7.30
2018,04,22,08,16,7.40
2018,04,22,08,17,7.50
2018,04,22,08,18,7.60
2018,04,22,08,19,7.70
2018,04,22,08,20,7.70
2018,04,22,08,21,7.80
2018,04,22,08,22,7.90
2018,04,22,08,23,8.00
2018,04,22,08,24,8.00
2018,04,22,08,25,8.00
2018,04,22,08,26,8.10
2018,04,22,08,27,8.20
2018,04,22,08,28,8.30
2018,04,22,08,29,8.30
2018,04,22,08,30,8.30
2018,04,22,08,31,8.40
2018,04,22,08,32,8.50
2018,04,22,08,33,8.60
2018,04,22,08,34,8.60
2018,04,22,08,35,8.60
2018,04,22,08,36,8.70
2018,04,22,08,37,8.70
2018,04,22,08,38,8.80
2018,04,22,08,39,8.90
2018,04,22,08,40,8.90
2018,04,22,08,41,8.90
2018,04,22,08,42,8.90
2018,04,22,08,43,8.90
2018,04,22,08,44,8.90
2018,04,22,08,45,8.90
2018,04,22,08,46,8.90
2018,04,22,08,47,9.10
2018,04,22,08,48,9.10
2018,04,22,08,49,9.20
2018,04,22,08,50,9.20
2018,04,22,08,51,9.10
2018,04,22,08,52,9.10
2018,04,22,08,53,9.10
2018,04,22,08,54,9.10
2018,04,22,08,55,9.10
2018,04,22,08,56,9.10
2018,04,22,08,57,9.10
2018,04,22,08,58,9.10
2018,04,22,08,59,9.10
2018,04,22,09,00,9.10
2018,04,22,09,01,9.10
2018,04,22,09,02,9.10
2018,04,22,09,03,9.10
2018,04,22,09,04,9.10
2018,04,22,09,05,9.20
2018,04,22,09,06,9.20
2018,04,22,09,07,9.20
2018,04,22,09,08,9.20
2018,04,22,09,09,9.20
2018,04,22,09,10,9.20
2018,04,22,09,11,9.20
2018,04,22,09,12,9.20
2018,04,22,09,13,9.20
2018,04,22,09,14,9.10
2018,04,22,09,15,9.20
2018,04,22,09,16,9.20
2018,04,22,09,17,9.30
2018,04,22,09,18,9.30
2018,04,22,09,19,9.40
2018,04,22,09,20,9.50
2018,04,22,09,21,9.60
2018,04,22,09,22,9.60
2018,04,22,09,23,9.70
2018,04,22,09,24,9.70
2018,04,22,09,25,9.70
2018,04,22,09,26,9.70
2018,04,22,09,27,9.70
2018,04,22,09,28,9.70
2018,04,22,09,29,9.80
2018,04,22,09,30,9.80
2018,04,22,09,31,9.80
2018,04,22,09,32,9.90
2018,04,22,09,33,10.00
2018,04,22,09,34,10.10
2018,04,22,09,35,10.10
2018,04,22,09,36,10.10
2018,04,22,09,37,10.10
2018,04,22,09,38,10.00
2018,04,22,09,39,10.00
2018,04,22,09,40,10.00
2018,04,22,09,41,10.10
2018,04,22,09,42,10.20
2018,04,22,09,43,10.20
2018,04,22,09,44,10.30
2018,04,22,09,45,10.30
2018,04,22,09,46,10.40
2018,04,22,09,47,10.40
2018,04,22,09,48,10.40
2018,04,22,09,49,10.40
2018,04,22,09,50,10.40
2018,04,22,09,51,10.40
2018,04,22,09,52,10.40
2018,04,22,09,53,10.40
2018,04,22,09,54,10.30
2018,04,22,09,55,10.30
2018,04,22,09,56,10.30
2018,04,22,09,57,10.30
2018,04,22,09,58,10.40
2018,04,22,09,59,10.40
2018,04,22,10,00,10.40
2018,04,22,10,01,10.40
2018,04,22,10,02,10.50
2018,04,22,10,03,10.50
2018,04,22,10,04,10.50
2018,04,22,10,05,10.40
2018,04,22,10,06,10.40
2018,04,22,10,07,10.50
2018,04,22,10,08,10.50
2018,04,22,10,09,10.70
2018,04,22,10,10,10.70
2018,04,22,10,11,10.50
2018,04,22,10,12,10.50
2018,04,22,10,13,10.60
2018,04,22,10,14,10.70
2018,04,22,10,15,10.70
2018,04,22,10,16,10.70
2018,04,22,10,17,10.60
2018,04,22,10,18,10.50
2018,04,22,10,19,10.50
2018,04,22,10,20,10.50
2018,04,22,10,21,10.60
2018,04,22,10,22,10.60
2018,04,22,10,23,10.50
2018,04,22,10,24,10.40
2018,04,22,10,25,10.40
2018,04,22,10,26,10.40
2018,04,22,10,27,10.30
2018,04,22,10,28,10.20
2018,04,22,10,29,10.30
2018,04,22,10,30,10.30
2018,04,22,10,31,10.30
2018,04,22,10,32,10.30
2018,04,22,10,33,10.40
2018,04,22,10,34,10.40
2018,04,22,10,35,10.40
2018,04,22,10,36,10.40
2018,04,22,10,37,10.40
2018,04,22,10,38,10.40
2018,04,22,10,39,10.50
2018,04,22,10,40,10.60
2018,04,22,10,41,10.70
2018,04,22,10,42,10.90
2018,04,22,10,43,10.90
2018,04,22,10,44,10.90
2018,04,22,10,45,10.70
2018,04,22,10,46,10.70
2018,04,22,10,47,10.60
2018,04,22,10,48,10.60
2018,04,22,10,49,10.50
2018,04,22,10,50,10.60
2018,04,22,10,51,10.50
2018,04,22,10,52,10.40
2018,04,22,10,53,10.40
2018,04,22,10,54,10.40
2018,04,22,10,55,10.50
2018,04,22,10,56,10.60
2018,04,22,10,57,10.50
2018,04,22,10,58,10.40
2018,04,22,10,59,10.40
2018,04,22,11,00,10.50
2018,04,22,11,01,10.70
2018,04,22,11,02,10.80
2018,04,22,11,03,11.00
2018,04,22,11,04,11.10
2018,04,22,11,05,11.10
2018,04,22,11,06,11.00
2018,04,22,11,07,10.90
2018,04,22,11,08,11.00
2018,04,22,11,09,11.10
2018,04,22,11,10,11.10
2018,04,22,11,11,11.20
2018,04,22,11,12,11.10
2018,04,22,11,13,11.00
2018,04,22,11,14,11.00
2018,04,22,11,15,10.90
2018,04,22,11,16,10.90
2018,04,22,11,17,10.80
2018,04,22,11,18,10.80
2018,04,22,11,19,10.70
2018,04,22,11,20,10.70
2018,04,22,11,21,10.70
2018,04,22,11,22,10.80
2018,04,22,11,23,10.80
2018,04,22,11,24,10.80
2018,04,22,11,25,10.80
2018,04,22,11,26,10.80
2018,04,22,11,27,10.80
2018,04,22,11,28,10.80
2018,04,22,11,29,10.90
2018,04,22,11,30,11.00
2018,04,22,11,31,11.10
2018,04,22,11,32,11.10
2018,04,22,11,33,11.20
2018,04,22,11,34,11.20
2018,04,22,11,35,11.10
2018,04,22,11,36,11.20
2018,04,22,11,37,11.20
2018,04,22,11,38,11.20
2018,04,22,11,39,11.20
2018,04,22,11,40,11.10
2018,04,22,11,41,11.00
2018,04,22,11,42,10.90
2018,04,22,11,43,11.00
2018,04,22,11,44,11.00
2018,04,22,11,45,11.10
2018,04,22,11,46,11.20
2018,04,22,11,47,11.30
2018,04,22,11,48,11.30
2018,04,22,11,49,11.30
2018,04,22,11,50,11.40
2018,04,22,11,51,11.30
2018,04,22,11,52,11.30
2018,04,22,11,53,11.40
2018,04,22,11,54,11.40
2018,04,22,11,55,11.40
2018,04,22,11,56,11.30
2018,04,22,11,57,11.30
2018,04,22,11,58,11.30
2018,04,22,11,59,11.20
2018,04,22,12,00,11.30
2018,04,22,12,01,11.30
2018,04,22,12,02,11.40
2018,04,22,12,03,11.40
2018,04,22,12,04,11.40
2018,04,22,12,05,11.40
2018,04,22,12,06,11.40
2018,04,22,12,07,11.50
2018,04,22,12,08,11.70
2018,04,22,12,09,11.60
2018,04,22,12,10,11.60
2018,04,22,12,11,11.70
2018,04,22,12,12,11.70
2018,04,22,12,13,11.60
2018,04,22,12,14,11.60
2018,04,22,12,15,11.70
2018,04,22,12,16,11.90
2018,04,22,12,17,11.90
2018,04,22,12,18,11.90
2018,04,22,12,19,11.80
2018,04,22,12,20,11.70
2018,04,22,12,21,11.60
2018,04,22,12,22,11.60
2018,04,22,12,23,11.70
2018,04,22,12,24,11.70
2018,04,22,12,25,11.80
2018,04,22,12,26,11.80
2018,04,22,12,27,11.80
2018,04,22,12,28,11.80
2018,04,22,12,29,11.80
2018,04,22,12,30,11.70
2018,04,22,12,31,11.70
2018,04,22,12,32,11.70
2018,04,22,12,33,11.70
2018,04,22,12,34,11.80
2018,04,22,12,35,11.70
2018,04,22,12,36,11.80
2018,04,22,12,37,11.80
2018,04,22,12,38,11.80
2018,04,22,12,39,11.90
2018,04,22,12,40,12.00
2018,04,22,12,41,12.00
2018,04,22,12,42,12.00
2018,04,22,12,43,11.80
2018,04,22,12,44,11.70
2018,04,22,12,45,11.80
2018,04,22,12,46,11.80
2018,04,22,12,47,11.70
2018,04,22,12,48,11.80
2018,04,22,12,49,11.90
2018,04,22,12,50,12.00
2018,04,22,12,51,12.00
2018,04,22,12,52,12.00
2018,04,22,12,53,12.00
2018,04,22,12,54,12.00
2018,04,22,12,55,12.00
2018,04,22,12,56,12.10
2018,04,22,12,57,12.10
2018,04,22,12,58,12.20
2018,04,22,12,59,12.10
2018,04,22,13,00,12.00
2018,04,22,13,01,11.80
2018,04,22,13,02,11.70
2018,04,22,13,03,11.70
2018,04,22,13,04,11.70
2018,04,22,13,05,11.80
2018,04,22,13,06,11.90
2018,04,22,13,07,12.00
2018,04,22,13,08,12.00
2018,04,22,13,09,12.00
2018,04,22,13,10,12.00
2018,04,22,13,11,11.90
2018,04,22,13,12,11.90
2018,04,22,13,13,11.90
2018,04,22,13,14,11.90
2018,04,22,13,15,11.80
2018,04,22,13,16,11.80
2018,04,22,13,17,11.80
2018,04,22,13,18,11.80
2018,04,22,13,19,11.90
2018,04,22,13,20,11.90
2018,04,22,13,21,11.90
2018,04,22,13,22,11.80
2018,04,22,13,23,11.90
2018,04,22,13,24,11.90
2018,04,22,13,25,12.10
2018,04,22,13,26,12.20
2018,04,22,13,27,12.20
2018,04,22,13,28,12.20
2018,04,22,13,29,12.10
2018,04,22,13,30,12.10
2018,04,22,13,31,12.10
2018,04,22,13,32,12.10
2018,04,22,13,33,12.10
2018,04,22,13,34,12.20
2018,04,22,13,35,12.30
2018,04,22,13,36,12.30
2018,04,22,13,37,12.40
2018,04,22,13,38,12.60
2018,04,22,13,39,12.60
2018,04,22,13,40,12.70
2018,04,22,13,41,12.60
2018,04,22,13,42,12.60
2018,04,22,13,43,12.60
2018,04,22,13,44,12.70
2018,04,22,13,45,12.70
2018,04,22,13,46,12.70
2018,04,22,13,47,12.60
2018,04,22,13,48,12.40
2018,04,22,13,49,12.40
2018,04,22,13,50,12.50
2018,04,22,13,51,12.60
2018,04,22,13,52,12.70
2018,04,22,13,53,12.80
2018,04,22,13,54,12.70
2018,04,22,13,55,12.70
2018,04,22,13,56,12.70
2018,04,22,13,57,12.70
2018,04,22,13,58,12.70
2018,04,22,13,59,12.70
2018,04,22,14,00,12.80
2018,04,22,14,01,12.80
2018,04,22,14,02,12.70
2018,04,22,14,03,12.60
2018,04,22,14,04,12.60
2018,04,22,14,05,12.70
2018,04,22,14,06,12.80
2018,04,22,14,07,12.70
2018,04,22,14,08,12.50
2018,04,22,14,09,12.50
2018,04,22,14,10,12.50
2018,04,22,14,11,12.60
2018,04,22,14,12,12.60
2018,04,22,14,13,12.70
2018,04,22,14,14,12.70
2018,04,22,14,15,12.70
2018,04,22,14,16,12.80
2018,04,22,14,17,12.80
2018,04,22,14,18,12.80
2018,04,22,14,19,12.80
2018,04,22,14,20,12.90
2018,04,22,14,21,12.90
2018,04,22,14,22,12.90
2018,04,22,14,23,12.90
2018,04,22,14,24,13.00
2018,04,22,14,25,13.00
2018,04,22,14,26,12.90
2018,04,22,14,27,13.00
2018,04,22,14,28,12.90
2018,04,22,14,29,12.80
2018,04,22,14,30,12.80
2018,04,22,14,31,12.80
2018,04,22,14,32,12.70
2018,04,22,14,33,12.80
2018,04,22,14,34,12.80
2018,04,22,14,35,12.90
2018,04,22,14,36,12.90
2018,04,22,14,37,13.00
2018,04,22,14,38,12.90
2018,04,22,14,39,13.00
2018,04,22,14,40,13.00
2018,04,22,14,41,13.00
2018,04,22,14,42,13.10
2018,04,22,14,43,13.20
2018,04,22,14,44,13.10
2018,04,22,14,45,13.10
2018,04,22,14,46,13.10
2018,04,22,14,47,13.10
2018,04,22,14,48,13.00
2018,04,22,14,49,13.00
2018,04,22,14,50,13.10
2018,04,22,14,51,13.20
2018,04,22,14,52,13.20
2018,04,22,14,53,13.10
2018,04,22,14,54,13.10
2018,04,22,14,55,13.10
2018,04,22,14,56,13.20
2018,04,22,14,57,13.30
2018,04,22,14,58,13.30
2018,04,22,14,59,13.30
2018,04,22,15,00,13.20
2018,04,22,15,01,13.20
2018,04,22,15,02,13.20
2018,04,22,15,03,13.20
2018,04,22,15,04,13.30
2018,04,22,15,05,13.20
2018,04,22,15,06,13.20
2018,04,22,15,07,13.30
2018,04,22,15,08,13.40
2018,04,22,15,09,13.60
2018,04,22,15,10,13.60
2018,04,22,15,11,13.60
2018,04,22,15,12,13.50
2018,04,22,15,13,13.50
2018,04,22,15,14,13.50
2018,04,22,15,15,13.60
2018,04,22,15,16,13.70
2018,04,22,15,17,13.60
2018,04,22,15,18,13.60
2018,04,22,15,19,13.50
2018,04,22,15,20,13.60
2018,04,22,15,21,13.70
2018,04,22,15,22,13.60
2018,04,22,15,23,13.50
2018,04,22,15,24,13.50
2018,04,22,15,25,13.40
2018,04,22,15,26,13.30
2018,04,22,15,27,13.40
2018,04,22,15,28,13.40
2018,04,22,15,29,13.40
2018,04,22,15,30,13.50
2018,04,22,15,31,13.60
2018,04,22,15,32,13.60
2018,04,22,15,33,13.60
2018,04,22,15,34,13.70
2018,04,22,15,35,13.60
2018,04,22,15,36,13.70
2018,04,22,15,37,13.80
2018,04,22,15,38,13.80
2018,04,22,15,39,13.80
2018,04,22,15,40,13.70
2018,04,22,15,41,13.70
2018,04,22,15,42,13.80
2018,04,22,15,43,13.90
2018,04,22,15,44,14.00
2018,04,22,15,45,14.10
2018,04,22,15,46,14.10
2018,04,22,15,47,14.10
2018,04,22,15,48,14.00
2018,04,22,15,49,14.00
2018,04,22,15,50,14.00
2018,04,22,15,51,14.10
2018,04,22,15,52,14.00
2018,04,22,15,53,14.00
2018,04,22,15,54,13.90
2018,04,22,15,55,14.00
2018,04,22,15,56,14.10
2018,04,22,15,57,14.10
2018,04,22,15,58,14.10
2018,04,22,15,59,14.10
2018,04,22,16,00,14.10
2018,04,22,16,01,14.10
2018,04,22,16,02,14.10
2018,04,22,16,03,14.20
2018,04,22,16,04,14.20
2018,04,22,16,05,14.20
2018,04,22,16,06,14.10
2018,04,22,16,07,14.10
2018,04,22,16,08,14.20
2018,04,22,16,09,14.20
2018,04,22,16,10,14.10
2018,04,22,16,11,14.10
2018,04,22,16,12,14.00
2018,04,22,16,13,13.80
2018,04,22,16,14,13.80
2018,04,22,16,15,13.80
2018,04,22,16,16,13.80
2018,04,22,16,17,13.80
2018,04,22,16,18,13.80
2018,04,22,16,19,13.80
2018,04,22,16,20,13.80
2018,04,22,16,21,13.70
2018,04,22,16,22,13.70
2018,04,22,16,23,13.70
2018,04,22,16,24,13.70
2018,04,22,16,25,13.70
2018,04,22,16,26,13.70
2018,04,22,16,27,13.70
2018,04,22,16,28,13.70
2018,04,22,16,29,13.80
2018,04,22,16,30,13.80
2018,04,22,16,31,13.80
2018,04,22,16,32,13.80
2018,04,22,16,33,14.00
2018,04,22,16,34,14.00
2018,04,22,16,35,14.10
2018,04,22,16,36,14.10
2018,04,22,16,37,14.20
2018,04,22,16,38,14.20
2018,04,22,16,39,14.20
2018,04,22,16,40,14.20
2018,04,22,16,41,14.30
2018,04,22,16,42,14.30
2018,04,22,16,43,14.20
2018,04,22,16,44,14.20
2018,04,22,16,45,14.20
2018,04,22,16,46,14.20
2018,04,22,16,47,14.20
2018,04,22,16,48,14.10
2018,04,22,16,49,14.10
2018,04,22,16,50,14.10
2018,04,22,16,51,14.00
2018,04,22,16,52,13.90
2018,04,22,16,53,13.90
2018,04,22,16,54,13.90
2018,04,22,16,55,14.00
2018,04,22,16,56,14.00
2018,04,22,16,57,14.00
2018,04,22,16,58,14.00
2018,04,22,16,59,14.10
2018,04,22,17,00,14.00
2018,04,22,17,01,14.00
2018,04,22,17,02,13.90
2018,04,22,17,03,13.90
2018,04,22,17,04,13.90
2018,04,22,17,05,14.00
2018,04,22,17,06,14.00
2018,04,22,17,07,14.00
2018,04,22,17,08,13.90
2018,04,22,17,09,13.90
2018,04,22,17,10,13.80
2018,04,22,17,11,13.80
2018,04,22,17,12,13.80
2018,04,22,17,13,13.80
2018,04,22,17,14,13.90
2018,04,22,17,15,13.90
2018,04,22,17,16,14.00
2018,04,22,17,17,14.00
2018,04,22,17,18,14.00
2018,04,22,17,19,14.10
2018,04,22,17,20,14.00
2018,04,22,17,21,13.90
2018,04,22,17,22,13.90
2018,04,22,17,23,14.00
2018,04,22,17,24,14.00
2018,04,22,17,25,13.90
2018,04,22,17,26,13.90
2018,04,22,17,27,14.00
2018,04,22,17,28,14.10
2018,04,22,17,29,14.10
2018,04,22,17,30,14.10
2018,04,22,17,31,14.10
2018,04,22,17,32,14.20
2018,04,22,17,33,14.20
2018,04,22,17,34,14.20
2018,04,22,17,35,14.20
2018,04,22,17,36,14.20
2018,04,22,17,37,14.20
2018,04,22,17,38,14.20
2018,04,22,17,39,14.10
2018,04,22,17,40,14.10
2018,04,22,17,41,14.10
2018,04,22,17,42,14.00
2018,04,22,17,43,14.00
2018,04,22,17,44,13.90